Home   Weather   Ho Chi Minh   Past weeks
Flag for Vietnam

Past Weather in Ho Chi Minh, Vietnam — Yesterday and Last 2 Weeks

Now
88 °F

Passing clouds.


Feels Like: 89 °F
Forecast: 96 / 77 °F
Wind: 8 mph from East

Location: Ho Chi Minh

Current Time: Feb 29, 2020 at 11:42:42 am

Latest Report: Feb 29, 2020 at 10:30 am


Visibility: N/A

Pressure: 29.86 "Hg

Humidity: 46%

Dew Point: 64 °F

Location of Ho Chi MinhLocation

Past Weather in Ho Chi Minh — Graph

°F

Ho Chi Minh Temperature Yesterday

Maximum temperature yesterday: 95 °F (at 1:00 pm)
Minimum temperature yesterday: 73 °F (at 4:30 am)
Average temperature yesterday: 83 °F

High & Low Weather Summary for the Past Weeks

 TemperatureHumidityPressure
High97 °F (Feb 17, 2:00 pm)100% (Feb 16, 4:00 am)30.04 "Hg (Feb 16, 4:00 am)
Low72 °F (Feb 19, 6:00 am)25% (Feb 19, 4:00 pm)29.74 "Hg (Feb 28, 3:30 pm)
Average83 °F59%29.89 "Hg
* Reported Feb 14 10:30 am — Feb 29 10:30 am, Ho Chi Minh. Weather by CustomWeather, © 2020

Note: Actual official high and low records may vary slightly from our data, if they occured in-between our weather recording intervals... More about our weather records

Ho Chi Minh Weather History for the Previous 24 Hours

Scroll right to see more
 ConditionsComfort  
Time TempWeatherWind HumidityBarometerVisibility
10:30 am
Sat, Feb 29
88 °FPassing clouds.8 mph46%29.86 "HgN/A
10:00 am88 °FPassing clouds.7 mph46%29.89 "HgN/A
9:30 am86 °FPassing clouds.6 mph49%29.89 "HgN/A
9:00 am84 °FPassing clouds.6 mph55%29.89 "HgN/A
8:30 am82 °FPassing clouds.6 mph62%29.89 "HgN/A
8:00 am81 °FPassing clouds.6 mph66%29.86 "HgN/A
7:30 am79 °FPassing clouds.5 mph74%29.86 "HgN/A
7:00 am79 °FPassing clouds.6 mph74%29.86 "HgN/A
6:30 am77 °FPassing clouds.6 mph79%29.83 "HgN/A
6:00 am77 °FPassing clouds.3 mph79%29.83 "HgN/A
5:30 am77 °FPassing clouds.6 mph79%29.80 "HgN/A
5:00 am77 °FPassing clouds.7 mph79%29.80 "HgN/A
4:30 am75 °FPassing clouds.3 mph78%29.80 "HgN/A
4:00 am77 °FPassing clouds.5 mph74%29.80 "HgN/A
3:30 am79 °FPassing clouds.6 mph65%29.80 "HgN/A
3:00 am79 °FPassing clouds.3 mph65%29.80 "HgN/A
2:30 am81 °FPassing clouds.6 mph58%29.80 "HgN/A
2:00 am79 °FPassing clouds.7 mph61%29.80 "HgN/A
1:30 am81 °FPassing clouds.7 mph58%29.80 "HgN/A
1:00 am81 °FPassing clouds.7 mph58%29.80 "HgN/A
12:30 am81 °FPassing clouds.8 mph58%29.83 "HgN/A
12:00 am81 °FPassing clouds.8 mph58%29.83 "HgN/A
11:30 pm
Fri, Feb 28
81 °FPassing clouds.12 mph58%29.86 "HgN/A
11:00 pm81 °FPassing clouds.13 mph58%29.86 "HgN/A
10:30 pm81 °FPassing clouds.12 mph58%29.83 "HgN/A
10:00 pm81 °FPassing clouds.9 mph58%29.83 "HgN/A
9:30 pm82 °FPassing clouds.12 mph51%29.83 "HgN/A
9:00 pm82 °FPassing clouds.12 mph51%29.83 "HgN/A
8:30 pm82 °FPassing clouds.10 mph51%29.83 "HgN/A
8:00 pm84 °FPassing clouds.9 mph48%29.83 "HgN/A
7:30 pm84 °FPassing clouds.10 mph51%29.80 "HgN/A
7:00 pm84 °FPassing clouds.9 mph48%29.80 "HgN/A
6:30 pm84 °FPassing clouds.9 mph48%29.80 "HgN/A
6:00 pm86 °FScattered clouds.9 mph46%29.77 "HgN/A
5:30 pm86 °FPassing clouds.10 mph46%29.77 "HgN/A
5:00 pm88 °FPassing clouds.13 mph43%29.77 "HgN/A
4:30 pm88 °FScattered clouds.15 mph46%29.77 "HgN/A
3:30 pm95 °FScattered clouds.2 mph28%29.74 "HgN/A
3:00 pm95 °FScattered clouds.5 mph28%29.77 "HgN/A
2:30 pm95 °FScattered clouds.5 mph28%29.77 "HgN/A
2:00 pm93 °FScattered clouds.3 mph32%29.77 "HgN/A
1:30 pm93 °FPassing clouds.5 mph34%29.80 "HgN/A
1:00 pm95 °FPassing clouds.3 mph32%29.80 "HgN/A
12:30 pm90 °FPassing clouds.3 mph36%29.83 "HgN/A
12:00 pm90 °FSunny.3 mph41%29.86 "Hg10 mi
11:30 am90 °FSunny.3 mph41%29.86 "Hg10 mi
11:00 am90 °FSunny.3 mph41%29.86 "Hg10 mi
Weather by CustomWeather, © 2020

See weather overview

Advertising